DK6MAX-13 Weather Reports


time (UTC)temp
F
wind
direction
speed
knots
gust
knots
rain 1hr
in
rain 24hr
in
rain mn
in
humidity
%
barometer
mb
20260506102410 57 0.0 0.0 0.00 0.00 0.00 83 1007.2
20260506102310 56 0.0 0.0 0.00 0.00 0.00 82 1007.2
20260506102210 55 0.0 0.0 0.00 0.00 0.00 82 1007.2
20260506102110 56 0.0 0.0 0.00 0.00 0.00 86 1007.2
20260506102010 55 0.0 0.0 0.00 0.00 0.00 86 1007.2
20260506101910 55 0.0 0.0 0.00 0.00 0.00 85 1007.2
20260506101810 55 0.0 0.0 0.00 0.00 0.00 85 1007.3
20260506101710 55 0.0 0.0 0.00 0.00 0.00 86 1007.2
20260506101610 55 0.0 0.0 0.00 0.00 0.00 85 1007.2
20260506101510 55 0.0 0.0 0.00 0.00 0.00 86 1007.2
20260506101410 55 0.0 0.0 0.00 0.00 0.00 87 1007.2
20260506101310 55 0.0 0.0 0.00 0.00 0.00 85 1007.2
20260506101211 55 0.0 0.0 0.00 0.00 0.00 86 1007.2
20260506101110 55 0.0 0.0 0.00 0.00 0.00 85 1007.2
20260506101010 55 0.0 0.0 0.00 0.00 0.00 86 1007.2
20260506100910 56 0.0 0.0 0.00 0.00 0.00 88 1007.2
20260506100810 55 0.0 0.0 0.00 0.00 0.00 89 1007.2
20260506100710 55 0.0 0.0 0.00 0.00 0.00 87 1007.2
20260506100610 54 0.0 0.0 0.00 0.00 0.00 90 1007.2
20260506100411 54 0.0 0.0 0.00 0.00 0.00 89 1007.2
20260506100310 54 0.0 0.0 0.00 0.00 0.00 87 1007.2
20260506100210 55 0.0 0.0 0.00 0.00 0.00 89 1007.2
20260506100110 55 0.0 0.0 0.00 0.00 0.00 90 1007.2
20260506100010 54 0.0 0.0 0.00 0.00 0.00 90 1007.2
20260506095910 53 0.0 0.0 0.00 0.00 0.00 89 1007.1
20260506095810 54 0.0 0.0 0.00 0.00 0.00 89 1007.1
20260506095710 54 0.0 0.0 0.00 0.00 0.00 87 1007.3
20260506095610 54 0.0 0.0 0.00 0.00 0.00 90 1007.3
20260506095510 54 0.0 0.0 0.00 0.00 0.00 89 1007.3
20260506095410 54 0.0 0.0 0.00 0.00 0.00 89 1007.3
20260506095310 54 0.0 0.0 0.00 0.00 0.00 86 1007.2
20260506095210 54 0.0 0.0 0.00 0.00 0.00 86 1007.2
20260506095110 55 0.0 0.0 0.00 0.00 0.00 86 1007.2
20260506095010 55 0.0 0.0 0.00 0.00 0.00 88 1007.2
20260506094910 55 0.0 0.0 0.00 0.00 0.00 88 1007.2
20260506094810 55 0.0 0.0 0.00 0.00 0.00 88 1007.2
20260506094710 55 0.0 0.0 0.00 0.00 0.00 86 1007.2
20260506094610 55 0.0 0.0 0.00 0.00 0.00 88 1007.2
20260506094510 55 0.0 0.0 0.00 0.00 0.00 88 1007.2
20260506094410 55 0.0 0.0 0.00 0.00 0.00 88 1007.1
20260506094310 55 0.0 0.0 0.00 0.00 0.00 88 1007.1
20260506094210 55 0.0 0.0 0.00 0.00 0.00 89 1007.1
20260506094110 55 0.0 0.0 0.00 0.00 0.00 89 1007.2
20260506094010 55 0.0 0.0 0.00 0.00 0.00 89 1007.2
20260506093910 55 0.0 0.0 0.00 0.00 0.00 87 1007.2
20260506093810 55 0.0 0.0 0.00 0.00 0.00 88 1007.2
20260506093711 56 0.0 0.0 0.00 0.00 0.00 88 1007.2
20260506093610 55 0.0 0.0 0.00 0.00 0.00 86 1007.2
20260506093510 55 0.0 0.0 0.00 0.00 0.00 85 1007.2
20260506093410 55 0.0 0.0 0.00 0.00 0.00 85 1007.2
20260506093310 55 0.0 0.0 0.00 0.00 0.00 88 1007.2
20260506093210 55 0.0 0.0 0.00 0.00 0.00 86 1007.1
20260506093110 55 0.0 0.0 0.00 0.00 0.00 84 1007.1
20260506093010 55 0.0 0.0 0.00 0.00 0.00 85 1007.1
20260506092910 55 0.0 0.0 0.00 0.00 0.00 85 1007.1
20260506092810 55 0.0 0.0 0.00 0.00 0.00 88 1007.1
20260506092710 55 0.0 0.0 0.00 0.00 0.00 85 1007.1
20260506092610 55 0.0 0.0 0.00 0.00 0.00 85 1007.1
20260506092510 56 0.0 0.0 0.00 0.00 0.00 83 1007.1
20260506092410 55 0.0 0.0 0.00 0.00 0.00 86 1007.1
20260506092310 55 0.0 0.0 0.00 0.00 0.00 84 1007.1
20260506092210 55 0.0 0.0 0.00 0.00 0.00 85 1007.1
20260506092110 56 0.0 0.0 0.00 0.00 0.00 85 1007.1
20260506092010 56 0.0 0.0 0.00 0.00 0.00 82 1007.0
20260506091910 56 0.0 0.0 0.00 0.00 0.00 81 1007.0
20260506091810 57 0.0 0.0 0.00 0.00 0.00 85 1007.1
20260506091710 56 0.0 0.0 0.00 0.00 0.00 86 1007.1
20260506091610 56 0.0 0.0 0.00 0.00 0.00 88 1007.1
20260506091510 56 0.0 0.0 0.00 0.00 0.00 90 1007.1
20260506091410 56 0.0 0.0 0.00 0.00 0.00 84 1007.1
20260506091310 55 0.0 0.0 0.00 0.00 0.00 84 1007.1
20260506091210 55 0.0 0.0 0.00 0.00 0.00 89 1007.1
20260506091110 56 0.0 0.0 0.00 0.00 0.00 89 1007.1
20260506091010 56 0.0 0.0 0.00 0.00 0.00 88 1007.1
20260506090910 56 0.0 0.0 0.00 0.00 0.00 85 1007.0
20260506090810 55 0.0 0.0 0.00 0.00 0.00 87 1007.0
20260506090710 55 0.0 0.0 0.00 0.00 0.00 90 1007.0
20260506090610 56 0.0 0.0 0.00 0.00 0.00 90 1007.0
20260506090510 55 0.0 0.0 0.00 0.00 0.00 88 1007.1
20260506090410 55 0.0 0.0 0.00 0.00 0.00 88 1007.1
20260506090310 55 0.0 0.0 0.00 0.00 0.00 88 1007.1
20260506090210 56 0.0 0.0 0.00 0.00 0.00 89 1007.0
20260506090110 55 0.0 0.0 0.00 0.00 0.00 86 1007.1
20260506090009 55 0.0 0.0 0.00 0.00 0.00 86 1007.1
20260506085910 55 0.0 0.0 0.00 0.00 0.00 86 1007.1
20260506085810 55 0.0 0.0 0.00 0.00 0.00 91 1007.0
20260506085710 55 0.0 0.0 0.00 0.00 0.00 91 1007.0
20260506085610 55 0.0 0.0 0.00 0.00 0.00 89 1007.0
20260506085510 55 0.0 0.0 0.00 0.00 0.00 90 1007.0
20260506085410 55 0.0 0.0 0.00 0.00 0.00 90 1007.0
20260506085310 55 0.0 0.0 0.00 0.00 0.00 91 1007.0
20260506085210 55 0.0 0.0 0.00 0.00 0.00 92 1007.0
20260506085110 54 0.0 0.0 0.00 0.00 0.00 90 1007.0
20260506085010 54 0.0 0.0 0.00 0.00 0.00 89 1007.0
20260506084910 55 0.0 0.0 0.00 0.00 0.00 90 1007.0
20260506084810 54 0.0 0.0 0.00 0.00 0.00 90 1007.1
20260506084711 54 0.0 0.0 0.00 0.00 0.00 92 1007.1
20260506084610 54 0.0 0.0 0.00 0.00 0.00 89 1007.1
20260506084510 55 0.0 0.0 0.00 0.00 0.00 91 1007.0
20260506084410 54 0.0 0.0 0.00 0.00 0.00 89 1007.0
20260506084311 55 0.0 0.0 0.00 0.00 0.00 89 1007.0
20260506084210 55 0.0 0.0 0.00 0.00 0.00 91 1007.0
20260506084110 54 0.0 0.0 0.00 0.00 0.00 91 1006.9
20260506084010 54 0.0 0.0 0.00 0.00 0.00 89 1007.0
20260506083910 55 0.0 0.0 0.00 0.00 0.00 90 1007.0
20260506083810 54 0.0 0.0 0.00 0.00 0.00 91 1006.9
20260506083710 54 0.0 0.0 0.00 0.00 0.00 90 1006.9
20260506083610 54 0.0 0.0 0.00 0.00 0.00 90 1006.9
20260506083510 53 0.0 0.0 0.00 0.00 0.00 90 1007.0
20260506083410 53 0.0 0.0 0.00 0.00 0.00 91 1006.9
20260506083310 53 0.0 0.0 0.00 0.00 0.00 91 1006.9
20260506083210 53 0.0 0.0 0.00 0.00 0.00 91 1006.9
20260506083110 53 0.0 0.0 0.00 0.00 0.00 91 1007.0
20260506083010 53 0.0 0.0 0.00 0.00 0.00 93 1006.9
20260506082910 53 0.0 0.0 0.00 0.00 0.00 93 1006.9
20260506082810 53 0.0 0.0 0.00 0.00 0.00 93 1006.9
20260506082710 52 0.0 0.0 0.00 0.00 0.00 91 1006.9
20260506082610 52 0.0 0.0 0.00 0.00 0.00 92 1006.9
20260506082510 52 0.0 0.0 0.00 0.00 0.00 92 1006.9
20260506082410 52 0.0 0.0 0.00 0.00 0.00 93 1006.9
20260506082310 52 0.0 0.0 0.00 0.00 0.00 93 1006.9
20260506082210 53 0.0 0.0 0.00 0.00 0.00 93 1006.9
20260506082110 53 0.0 0.0 0.00 0.00 0.00 93 1006.9
20260506082011 52 0.0 0.0 0.00 0.00 0.00 93 1006.9
20260506081910 53 0.0 0.0 0.00 0.00 0.00 93 1006.9
20260506081810 53 0.0 0.0 0.00 0.00 0.00 93 1006.9
20260506081710 53 0.0 0.0 0.00 0.00 0.00 93 1006.8
20260506081609 53 0.0 0.0 0.00 0.00 0.00 93 1006.9
20260506081510 53 0.0 0.0 0.00 0.00 0.00 93 1006.9
20260506081409 53 0.0 0.0 0.00 0.00 0.00 93 1006.8
20260506081310 53 0.0 0.0 0.00 0.00 0.00 93 1006.8
20260506081210 53 0.0 0.0 0.00 0.00 0.00 93 1006.8
20260506081110 52 0.0 0.0 0.00 0.00 0.00 92 1006.8
20260506081010 53 0.0 0.0 0.00 0.00 0.00 91 1006.8
20260506080909 53 0.0 0.0 0.00 0.00 0.00 93 1006.8
20260506080810 53 0.0 0.0 0.00 0.00 0.00 93 1006.8
20260506080710 53 0.0 0.0 0.00 0.00 0.00 92 1006.8
20260506080610 53 0.0 0.0 0.00 0.00 0.00 92 1006.8
20260506080510 53 0.0 0.0 0.00 0.00 0.00 92 1006.8
20260506080410 53 0.0 0.0 0.00 0.00 0.00 92 1006.7
20260506080310 53 0.0 0.0 0.00 0.00 0.00 91 1006.8
20260506080210 53 0.0 0.0 0.00 0.00 0.00 91 1006.8
20260506080110 53 0.0 0.0 0.00 0.00 0.00 92 1006.7
20260506073510 53 0.0 0.0 0.00 0.00 0.00 91 1006.6
20260506073410 53 0.0 0.0 0.00 0.00 0.00 91 1006.6
20260506073310 53 0.0 0.0 0.00 0.00 0.00 91 1006.5
20260506073210 53 0.0 0.0 0.00 0.00 0.00 93 1006.6
20260506073110 53 0.0 0.0 0.00 0.00 0.00 93 1006.6
20260506073010 53 0.0 0.0 0.00 0.00 0.00 90 1006.5
20260506072910 53 0.0 0.0 0.00 0.00 0.00 90 1006.5
20260506072810 53 0.0 0.0 0.00 0.00 0.00 93 1006.5
20260506072710 54 0.0 0.0 0.00 0.00 0.00 93 1006.6
20260506072609 53 0.0 0.0 0.00 0.00 0.00 92 1006.6
20260506072510 53 0.0 0.0 0.00 0.00 0.00 92 1006.6
20260506072409 53 0.0 0.0 0.00 0.00 0.00 92 1006.6
20260506072310 53 0.0 0.0 0.00 0.00 0.00 92 1006.6
20260506072210 53 0.0 0.0 0.00 0.00 0.00 90 1006.6
20260506072109 53 0.0 0.0 0.00 0.00 0.00 92 1006.7
20260506072010 53 0.0 0.0 0.00 0.00 0.00 92 1006.7
20260506071910 53 0.0 0.0 0.00 0.00 0.00 90 1006.7
20260506071810 53 0.0 0.0 0.00 0.00 0.00 91 1006.7
20260506071710 53 0.0 0.0 0.00 0.00 0.00 91 1006.7
20260506071610 53 0.0 0.0 0.00 0.00 0.00 92 1006.7
20260506071510 53 0.0 0.0 0.00 0.00 0.00 91 1006.7
20260506071410 53 0.0 0.0 0.00 0.00 0.00 92 1006.7
20260506071310 53 0.0 0.0 0.00 0.00 0.00 93 1006.7
20260506071210 53 0.0 0.0 0.00 0.00 0.00 93 1006.7
20260506071110 52 0.0 0.0 0.00 0.00 0.00 93 1006.7
20260506071010 52 0.0 0.0 0.00 0.00 0.00 92 1006.7
20260506070910 52 0.0 0.0 0.00 0.00 0.00 92 1006.7
20260506070810 52 0.0 0.0 0.00 0.00 0.00 93 1006.6
20260506070709 51 0.0 0.0 0.00 0.00 0.00 93 1006.6
20260506070610 51 0.0 0.0 0.00 0.00 0.00 93 1006.6
20260506070510 52 0.0 0.0 0.00 0.00 0.00 93 1006.6
20260506070410 51 0.0 0.0 0.00 0.00 0.00 92 1006.6
20260506070310 52 0.0 0.0 0.00 0.00 0.00 92 1006.7
20260506070210 52 0.0 0.0 0.00 0.00 0.00 92 1006.6
20260506070110 52 0.0 0.0 0.00 0.00 0.00 93 1006.7
20260506062509 51 0.0 0.0 0.00 0.00 0.00 93 1006.6
20260506062409 51 0.0 0.0 0.00 0.00 0.00 93 1006.6
20260506062309 51 0.0 0.0 0.00 0.00 0.00 93 1006.6
20260506062209 51 0.0 0.0 0.00 0.00 0.00 93 1006.6
20260506062110 51 0.0 0.0 0.00 0.00 0.00 93 1006.6
20260506062010 51 0.0 0.0 0.00 0.00 0.00 93 1006.5
20260506061910 52 0.0 0.0 0.00 0.00 0.00 93 1006.5
20260506061810 52 0.0 0.0 0.00 0.00 0.00 93 1006.6
20260506061710 52 0.0 0.0 0.00 0.00 0.00 93 1006.5
20260506061610 52 0.0 0.0 0.00 0.00 0.00 93 1006.6
20260506061510 51 0.0 0.0 0.00 0.00 0.00 93 1006.5
20260506061409 52 0.0 0.0 0.00 0.00 0.00 93 1006.5
20260506061310 52 0.0 0.0 0.00 0.00 0.00 93 1006.5
20260506061210 52 0.0 0.0 0.00 0.00 0.00 92 1006.5
20260506061110 52 0.0 0.0 0.00 0.00 0.00 93 1006.5
20260506061010 52 0.0 0.0 0.00 0.00 0.00 92 1006.5
20260506060909 52 0.0 0.0 0.00 0.00 0.00 93 1006.5
20260506060809 52 0.0 0.0 0.00 0.00 0.00 93 1006.5
20260506060710 52 0.0 0.0 0.00 0.00 0.00 93 1006.5
20260506060609 52 0.0 0.0 0.00 0.00 0.00 92 1006.5
20260506060510 52 0.0 0.0 0.00 0.00 0.00 92 1006.5
20260506060409 52 0.0 0.0 0.00 0.00 0.00 92 1006.5
20260506060309 52 0.0 0.0 0.00 0.00 0.00 92 1006.5
20260506060210 52 0.0 0.0 0.00 0.00 0.00 92 1006.4
20260506060110 52 0.0 0.0 0.00 0.00 0.00 91 1006.4
20260506051410 51 0.0 0.0 0.00 0.00 0.00 94 1006.4
20260506051310 51 0.0 0.0 0.00 0.00 0.00 95 1006.5
20260506051210 51 0.0 0.0 0.00 0.00 0.00 95 1006.4
20260506051110 51 0.0 0.0 0.00 0.00 0.00 94 1006.5
20260506051010 51 0.0 0.0 0.00 0.00 0.00 94 1006.5
20260506050910 51 0.0 0.0 0.00 0.00 0.00 95 1006.5
20260506050810 51 0.0 0.0 0.00 0.00 0.00 94 1006.5
20260506050710 51 0.0 0.0 0.00 0.00 0.00 94 1006.5
20260506050610 51 0.0 0.0 0.00 0.00 0.00 95 1006.5
20260506050510 51 0.0 0.0 0.00 0.00 0.00 94 1006.5
20260506050409 51 0.0 0.0 0.00 0.00 0.00 94 1006.5
20260506050309 51 0.0 0.0 0.00 0.00 0.00 94 1006.5
20260506050210 51 0.0 0.0 0.00 0.00 0.00 94 1006.5
20260506050110 51 0.0 0.0 0.00 0.00 0.00 95 1006.5
20260506045109 51 0.0 0.0 0.00 0.00 0.00 94 1006.5
20260506045009 51 0.0 0.0 0.00 0.00 0.00 94 1006.5
20260506044909 51 0.0 0.0 0.00 0.00 0.00 94 1006.5
20260506044810 51 0.0 0.0 0.00 0.00 0.00 94 1006.5
20260506044710 51 0.0 0.0 0.00 0.00 0.00 95 1006.5
20260506044611 51 0.0 0.0 0.00 0.00 0.00 95 1006.5
20260506044510 51 0.0 0.0 0.00 0.00 0.00 94 1006.5
20260506044410 51 0.0 0.0 0.00 0.00 0.00 94 1006.6
20260506044310 51 0.0 0.0 0.00 0.00 0.00 94 1006.6
20260506044210 51 0.0 0.0 0.00 0.00 0.00 95 1006.5
20260506044110 51 0.0 0.0 0.00 0.00 0.00 94 1006.5
20260506044009 51 0.0 0.0 0.00 0.00 0.00 94 1006.5
20260506043910 51 0.0 0.0 0.00 0.00 0.00 94 1006.5
20260506043809 51 0.0 0.0 0.00 0.00 0.00 95 1006.5
20260506043709 51 0.0 0.0 0.00 0.00 0.00 95 1006.5
20260506043610 51 0.0 0.0 0.00 0.00 0.00 94 1006.5
20260506043510 51 0.0 0.0 0.00 0.00 0.00 94 1006.6
20260506043409 51 0.0 0.0 0.00 0.00 0.00 94 1006.5
20260506043309 51 0.0 0.0 0.00 0.00 0.00 94 1006.5
20260506043210 51 0.0 0.0 0.00 0.00 0.00 94 1006.5
20260506043109 51 0.0 0.0 0.00 0.00 0.00 94 1006.5
20260506043009 51 0.0 0.0 0.00 0.00 0.00 94 1006.5
20260506042910 51 0.0 0.0 0.00 0.00 0.00 94 1006.5
20260506042809 51 0.0 0.0 0.00 0.00 0.00 94 1006.5